SCP
0 0 0 0 0 0 0 0 0 0 0 0 0 0 1 1 1 1 1 1 2 2 3 3 3 3 3 3 3 3 3 3 3 3 3 3 3 3 3 3 3 2 2 2
0 0 0 0 0 0 0 0 0 0 1 0 0 0 0 1 1 1 1 1 1 2 3 4 4 3 3 3 3 3 3 3 4 3 3 3 3 3 3 3 3 2 2 2
0 0 0 0 0 0 0 0 0 0 1 1 0 0 0 0 1 1 1 1 1 2 3 3 4 3 3 3 3 3 3 4 4 4 4 3 3 3 3 3 3 2 2 2
0 0 0 0 0 0 0 0 0 0 0 0 0 0 0 0 1 1 1 1 1 1 2 3 3 3 3 3 3 3 3 4 5 5 4 4 4 3 3 3 3 3 3 3
0 0 0 0 0 0 0 0 0 0 0 0 0 0 0 1 1 1 2 2 2 2 2 2 3 3 3 3 2 3 3 4 5 5 5 4 4 4 3 3 3 3 3 3
0 0 0 0 0 0 0 0 0 0 0 0 0 0 1 1 2 2 2 2 2 2 2 2 3 3 3 3 3 3 3 4 4 4 4 4 4 4 4 3 3 4 4 3
0 0 0 0 0 0 0 0 0 0 0 0 0 0 1 2 2 2 3 3 3 3 3 3 3 4 4 4 3 3 3 4 4 4 4 4 3 4 4 3 3 3 3 3
0 0 0 0 0 0 0 0 0 0 0 0 0 1 2 2 2 2 3 3 3 3 3 4 4 4 4 3 3 3 4 4 4 4 4 4 3 3 3 3 3 3 3 3
0 0 0 0 0 0 0 0 0 0 0 0 0 1 2 2 2 2 2 2 2 2 3 4 6 5 5 4 4 4 5 5 5 4 4 3 3 2 2 2 2 3 3 2
0 0 0 0 0 0 0 0 0 0 0 0 0 1 2 2 2 2 2 2 2 2 3 4 5 6 6 6 5 4 4 4 4 4 3 2 2 2 2 2 2 2 2 2
0 0 0 0 0 0 0 0 0 0 0 0 0 1 1 2 2 2 2 2 2 2 2 3 4 4 5 6 6 4 3 3 3 3 2 2 2 2 2 2 2 2 2 3
0 0 0 0 0 0 0 0 0 0 0 0 0 1 1 2 2 2 2 2 2 2 3 4 4 4 4 4 4 4 3 3 2 2 2 2 2 2 2 2 2 2 2 3
0 0 0 0 0 0 0 0 0 0 0 0 0 1 1 2 2 1 2 2 2 3 4 5 5 4 3 3 3 2 2 2 2 1 2 2 2 2 2 2 2 2 2 2
0 0 0 0 0 0 0 0 0 0 0 0 0 1 1 1 1 2 2 2 2 3 4 4 4 4 3 2 2 2 2 2 2 1 2 2 2 2 2 2 2 2 2 2
1 0 0 0 0 0 0 0 0 0 0 0 0 1 1 1 2 2 2 2 2 3 3 3 3 3 3 2 2 2 1 1 2 2 2 2 2 2 2 2 2 2 2 2
1 1 0 0 0 0 0 0 0 0 0 0 1 1 1 2 2 2 2 2 2 3 3 3 3 3 2 2 2 2 1 1 2 2 2 2 2 2 2 2 2 2 2 2
1 1 1 1 0 1 1 1 1 1 1 1 1 1 2 3 3 3 3 2 3 3 3 3 3 2 2 2 2 1 1 1 1 1 1 1 1 2 2 2 2 2 1 2
2 2 1 1 1 1 1 1 1 1 1 1 2 2 3 4 4 3 3 3 3 3 3 3 2 2 2 1 1 1 1 1 1 1 1 1 1 2 2 2 2 2 1 1
2 2 1 1 1 1 1 1 1 1 1 2 2 4 4 4 4 3 3 3 3 3 3 3 2 2 2 2 2 1 2 2 2 2 2 2 2 2 1 1 1 2 2 1
2 2 1 1 1 1 1 1 1 1 2 2 3 4 4 3 3 3 3 3 3 3 4 3 3 3 2 2 2 2 2 2 2 2 3 3 2 2 2 1 2 2 2 2
2 2 1 1 1 1 1 1 1 2 2 2 3 3 3 3 3 3 3 3 3 3 3 3 3 3 4 3 3 3 2 2 3 3 3 3 3 2 2 2 2 2 2 2
2 2 2 1 1 1 1 2 2 2 3 3 3 3 3 3 3 4 4 4 3 2 2 3 3 4 4 4 4 4 4 3 3 4 4 4 3 3 2 2 2 2 2 2
2 2 2 2 1 1 1 2 2 2 3 3 3 3 3 3 3 3 3 3 3 2 2 2 3 3 4 4 5 5 5 4 4 5 5 5 4 3 2 2 2 2 2 2
2 2 2 2 1 1 1 1 2 2 3 3 3 2 2 2 2 2 2 2 2 2 2 2 2 3 3 5 5 6 6 5 5 5 6 6 5 4 3 3 2 2 2 3
1 2 2 2 1 1 1 2 2 3 3 2 2 2 2 1 1 1 1 1 1 2 2 3 3 3 4 5 6 6 5 5 5 5 6 6 5 5 4 3 2 2 2 2
1 2 2 2 2 2 2 2 3 3 3 2 2 2 1 1 1 1 1 1 1 2 2 3 3 3 4 6 7 6 5 5 4 5 5 5 6 5 4 2 2 1 1 2
Wind_Speed
14 14 16 16 17 10 8 11 11 7 5 8 10 9 7 6 8 9 10 11 12 12 13 14 14 14 15 15 15 15 15 14 11 9 10 9 8 7 6 6 8 8 8 9
13 18 16 13 13 11 11 12 10 7 5 6 8 9 6 6 7 7 8 10 11 11 13 14 15 16 16 17 17 17 16 15 14 11 9 7 7 7 6 6 7 9 9 9
19 11 14 14 14 15 14 13 10 7 5 7 8 10 9 7 6 6 7 8 10 11 13 14 15 16 16 17 17 15 16 16 15 13 9 7 7 6 7 8 7 9 10 10
17 10 13 16 17 16 14 11 9 8 9 8 9 9 9 8 7 7 7 8 9 10 12 13 14 16 16 16 15 15 15 15 14 14 11 12 10 9 9 7 7 8 10 10
13 14 16 18 17 16 11 8 10 10 11 9 10 10 6 8 7 6 6 7 8 9 10 12 13 14 15 15 14 14 14 14 14 14 13 12 11 9 7 7 8 9 9 10
11 11 14 15 14 14 9 9 8 9 11 13 11 10 6 5 5 4 5 6 7 7 9 10 11 11 12 13 13 13 14 14 14 15 14 13 13 11 10 10 9 8 7 8
13 13 13 13 15 16 15 13 10 11 11 10 8 9 4 2 2 2 3 4 5 6 8 9 10 11 12 13 13 12 13 13 14 14 14 13 13 12 12 11 10 9 8 8
15 15 16 14 16 14 18 18 11 9 11 8 8 9 3 3 2 2 2 3 5 6 7 8 9 10 11 12 12 12 13 13 13 13 13 12 12 10 9 10 9 9 8 9
12 11 14 15 15 15 18 18 14 9 7 8 8 5 5 5 5 4 5 5 6 6 7 7 8 9 9 10 11 12 12 12 12 13 12 11 12 12 10 10 10 8 8 8
8 9 13 14 14 15 15 15 10 10 9 10 8 9 6 9 7 6 7 7 6 6 6 7 8 8 8 8 8 9 9 10 10 11 11 10 12 12 11 10 10 9 10 9
10 10 12 15 16 17 14 16 13 11 9 9 7 5 4 6 6 6 6 6 6 6 7 7 7 7 7 7 8 7 8 8 8 9 9 10 10 11 10 10 10 10 9 10
12 9 11 15 11 11 16 16 15 11 9 9 7 5 7 6 6 5 6 6 7 7 7 7 7 7 7 7 7 7 6 7 7 7 8 9 9 9 10 10 10 10 10 10
10 8 10 12 12 12 15 15 15 13 9 9 9 6 9 8 7 6 6 7 7 7 7 7 7 6 6 5 5 5 6 6 6 6 7 7 8 9 10 10 10 10 10 10
8 10 12 12 11 14 15 15 16 15 11 10 10 6 10 9 8 7 7 8 8 7 7 6 5 5 5 4 4 4 4 4 5 6 6 7 7 8 9 9 9 10 10 11
8 11 11 8 7 12 13 15 16 17 14 12 9 8 8 8 8 8 8 8 8 7 6 6 5 4 4 4 4 4 4 4 5 5 6 6 6 7 8 8 9 9 10 11
6 8 10 9 9 10 11 13 14 15 14 12 8 5 6 8 8 9 8 7 7 6 5 5 4 4 4 3 3 3 4 4 4 5 5 5 6 6 7 7 8 8 9 9
6 7 10 11 12 12 11 10 12 11 10 11 10 6 10 10 9 8 7 7 6 5 5 4 3 3 3 3 3 3 3 4 5 5 5 4 4 5 6 7 7 8 8 9
6 7 7 9 12 15 4 4 7 7 6 4 5 9 10 10 10 8 6 6 6 5 4 3 3 2 2 2 2 2 3 3 4 4 4 4 4 5 5 5 6 6 6 6
6 7 7 8 12 9 7 6 7 8 6 5 8 10 12 13 12 9 7 7 6 6 4 3 3 2 2 2 2 3 3 3 3 3 3 3 4 4 4 5 5 5 5 6
7 7 7 8 11 11 7 7 5 6 7 7 9 11 13 12 8 7 6 7 7 6 5 4 4 4 3 2 2 2 2 2 2 2 2 3 3 4 4 4 4 4 5 5
8 8 10 9 8 4 5 6 8 10 6 9 9 10 10 6 6 10 8 8 7 6 6 5 5 5 3 2 2 2 2 1 0 0 1 1 2 2 3 3 3 4 4 4
6 7 8 8 9 4 4 6 4 4 7 9 9 9 10 12 14 12 10 8 7 7 7 6 6 6 5 3 2 2 2 1 0 1 1 1 1 1 2 2 2 2 3 3
2 2 1 1 2 6 4 4 4 3 7 8 9 11 13 14 13 11 10 8 8 8 7 7 7 7 6 5 4 3 2 2 1 2 2 1 1 1 1 2 2 2 2 2
2 1 2 2 4 5 5 5 5 6 8 10 11 13 13 13 12 11 9 8 8 8 7 7 7 7 7 7 6 5 4 2 1 2 2 2 2 2 2 1 1 1 1 2
1 2 2 3 4 5 5 5 7 9 10 12 13 13 12 13 12 10 9 8 8 8 8 7 7 7 7 7 7 6 5 4 4 4 3 3 3 3 3 4 5 3 4 3
2 2 2 2 4 3 5 6 8 10 12 13 14 13 12 11 11 11 9 8 8 8 8 8 8 8 8 8 8 7 6 5 4 4 3 3 3 3 4 5 7 13 10 13
Wind_Direction
187 204 208 206 215 241 231 222 211 197 173 221 225 229 213 201 210 211 202 195 195 196 188 184 185 185 183 185 187 189 189 184 183 185 190 191 190 192 194 195 186 189 192 189
188 216 216 212 211 224 224 221 210 184 184 234 229 232 218 208 212 218 210 204 199 190 183 184 186 187 188 189 189 190 192 188 188 190 195 195 192 194 196 198 191 197 197 194
204 207 204 207 206 213 218 221 211 196 195 219 232 226 207 192 205 210 211 207 204 194 189 188 190 191 191 192 193 193 192 191 191 189 189 189 188 195 197 199 197 201 201 201
219 204 194 202 208 211 215 217 224 217 223 208 222 236 195 191 193 199 206 205 203 198 193 191 193 194 193 192 191 193 192 192 190 189 194 194 197 200 202 197 196 198 203 206
208 201 199 208 208 209 218 203 218 224 231 236 212 246 198 178 205 203 201 203 202 200 199 194 193 192 191 189 189 191 191 192 190 192 196 199 206 206 201 197 195 200 201 210
212 197 208 213 207 204 197 187 200 222 229 229 219 235 223 181 209 209 193 197 196 194 195 191 184 181 185 186 187 188 189 191 192 194 198 205 207 207 201 200 197 200 202 206
202 201 205 208 196 193 198 195 192 199 212 221 194 231 231 122 182 227 201 186 181 178 182 179 176 178 180 182 184 186 189 192 194 199 202 207 209 209 208 206 204 204 204 205
196 197 196 200 202 189 202 210 216 209 208 195 182 226 181 128 140 159 175 162 165 167 168 171 172 175 178 178 181 186 191 195 196 202 205 208 211 212 214 213 209 206 212 211
198 196 184 197 205 204 199 216 231 247 234 220 190 189 180 173 166 159 155 153 154 158 161 165 166 167 170 173 180 187 191 196 197 201 202 207 211 213 215 212 212 210 213 213
210 198 182 186 198 212 215 207 215 230 219 221 201 205 193 172 172 161 155 152 148 149 151 155 158 162 165 169 173 181 187 194 197 199 204 206 211 213 213 213 213 211 208 210
216 206 179 185 200 192 199 204 211 219 235 234 206 185 130 157 157 157 149 148 147 149 150 149 146 149 157 160 163 170 176 184 191 196 202 209 211 211 211 211 211 209 207 207
213 218 190 191 197 209 204 204 206 212 213 242 249 136 112 134 135 143 139 138 138 144 143 137 136 142 150 155 159 165 173 186 194 198 202 207 207 207 209 209 209 207 206 208
200 217 193 182 186 201 209 209 213 222 220 225 233 149 127 136 136 137 135 133 133 136 133 132 134 140 147 155 162 171 177 185 192 195 202 207 205 208 212 207 205 206 206 207
225 219 226 208 189 185 196 203 210 217 224 220 227 179 156 159 151 144 139 138 138 136 133 133 135 138 143 153 165 174 178 184 192 195 203 206 210 212 212 208 206 206 206 207
222 216 225 234 204 193 199 201 206 217 228 231 214 199 168 164 153 145 143 143 141 140 141 141 142 139 147 154 162 172 179 182 190 194 202 208 210 211 211 208 208 207 208 209
221 219 206 209 205 201 203 207 207 213 223 229 214 170 125 133 134 138 142 145 145 143 142 141 142 146 155 164 172 175 181 182 190 199 202 206 212 211 210 209 207 207 209 210
205 209 208 204 198 200 206 208 208 208 216 220 215 169 143 144 140 139 138 140 137 135 131 126 132 139 154 167 175 189 187 184 190 198 198 201 212 216 215 212 206 206 206 207
223 220 219 205 196 212 183 193 208 196 195 208 160 140 148 134 122 113 115 121 118 112 109 107 112 118 136 154 168 183 176 183 190 199 202 197 207 213 213 215 212 210 208 206
217 223 222 211 205 200 168 176 190 190 172 168 150 140 132 129 124 103 86 90 90 88 85 83 84 92 98 130 161 173 179 181 184 194 207 204 209 208 205 206 207 206 207 206
187 221 229 216 214 211 169 155 190 200 177 160 155 148 149 163 167 121 102 94 89 84 80 76 74 77 79 86 131 151 163 175 183 191 207 209 209 210 209 209 212 209 207 209
182 200 219 219 218 176 102 146 187 209 158 149 155 153 159 152 88 111 111 99 89 81 75 70 66 63 51 53 101 116 108 113 191 228 222 210 212 218 212 207 208 207 203 198
208 195 202 217 222 166 107 174 193 81 105 134 142 140 121 107 108 111 106 97 88 77 68 63 63 59 48 42 68 78 55 24 66 142 125 133 175 217 193 185 194 193 184 180
253 318 259 272 56 62 61 67 65 104 125 125 125 122 122 119 116 111 104 95 84 73 63 56 58 57 48 39 40 42 24 20 76 105 107 118 122 137 151 159 167 169 172 183
154 258 195 138 103 88 82 89 95 107 115 115 118 123 124 120 117 113 106 96 84 73 65 59 57 55 49 40 38 36 28 29 68 93 96 101 101 95 103 105 115 132 159 173
218 210 176 146 126 118 99 94 107 111 115 116 114 114 116 117 115 112 104 94 83 75 65 62 61 58 52 45 43 35 33 38 57 74 77 78 81 87 80 69 45 42 44 29
256 253 228 154 149 133 115 111 116 115 117 117 116 113 112 112 111 107 100 92 85 78 71 66 62 58 53 49 45 38 34 43 55 67 72 78 82 87 91 88 79 57 58 54